TimePST,TemperatureF,Dew PointF,Humidity,Sea Level PressureIn,VisibilityMPH,Wind Direction,Wind SpeedMPH,Gust SpeedMPH,PrecipitationIn,Events,Conditions,WindDirDegrees,DateUTC
12:15 AM,55.4,55.4,100,30.04,10.0,SE,6.9,-,N/A,,Overcast,140,2012-11-18 08:15:00
12:35 AM,55.4,55.4,100,30.04,10.0,SSE,8.1,-,N/A,,Mostly Cloudy,150,2012-11-18 08:35:00
12:55 AM,55.4,55.4,100,30.04,10.0,South,4.6,-,N/A,,Overcast,170,2012-11-18 08:55:00
1:15 AM,55.4,55.4,100,30.03,10.0,South,3.5,-,N/A,,Mostly Cloudy,170,2012-11-18 09:15:00
1:35 AM,55.4,55.4,100,30.03,10.0,Calm,Calm,-,N/A,,Overcast,0,2012-11-18 09:35:00
1:55 AM,55.4,55.4,100,30.04,10.0,SW,3.5,-,N/A,,Overcast,230,2012-11-18 09:55:00
2:15 AM,55.4,55.4,100,30.04,6.0,SW,5.8,-,N/A,,Overcast,220,2012-11-18 10:15:00
2:35 AM,53.6,53.6,100,30.04,7.0,SSW,4.6,-,0.01,,Mostly Cloudy,200,2012-11-18 10:35:00
2:55 AM,53.6,53.6,100,30.03,9.0,SSE,3.5,-,0.02,,Overcast,150,2012-11-18 10:55:00
3:15 AM,53.6,53.6,100,30.03,10.0,Calm,Calm,-,0.01,,Overcast,0,2012-11-18 11:15:00
3:35 AM,53.6,53.6,100,30.03,10.0,South,3.5,-,0.01,,Scattered Clouds,170,2012-11-18 11:35:00
3:55 AM,53.6,53.6,100,30.04,10.0,South,4.6,-,0.01,,Mostly Cloudy,170,2012-11-18 11:55:00
4:15 AM,53.6,53.6,100,30.03,10.0,South,5.8,-,N/A,,Overcast,170,2012-11-18 12:15:00
4:35 AM,53.6,53.6,100,30.05,10.0,SSE,3.5,-,0.01,,Overcast,160,2012-11-18 12:35:00
4:55 AM,53.6,53.6,100,30.06,10.0,SSE,4.6,-,0.01,,Overcast,160,2012-11-18 12:55:00
5:15 AM,55.4,55.4,100,30.06,10.0,SSE,5.8,-,N/A,,Overcast,160,2012-11-18 13:15:00
5:35 AM,55.4,55.4,100,30.07,10.0,SW,5.8,-,N/A,,Overcast,220,2012-11-18 13:35:00
5:55 AM,55.4,55.4,100,30.08,3.0,SW,3.5,-,N/A,,Overcast,220,2012-11-18 13:55:00
6:45 AM,55.4,55.4,100,30.10,7.0,Calm,Calm,-,N/A,Rain,Light Rain,0,2012-11-18 14:45:00
7:45 AM,55.4,55.4,100,30.12,7.0,Calm,Calm,-,N/A,,Overcast,0,2012-11-18 15:45:00
8:45 AM,55.4,55.4,100,30.12,7.0,Calm,Calm,-,N/A,,Overcast,0,2012-11-18 16:45:00
10:45 AM,60.8,60.8,100,30.13,10.0,SE,6.9,-,N/A,,Overcast,140,2012-11-18 18:45:00
11:45 AM,60.8,60.8,100,30.13,10.0,Calm,Calm,-,N/A,,Overcast,0,2012-11-18 19:45:00
12:45 PM,60.8,60.8,100,30.12,5.0,SE,5.8,-,N/A,,Overcast,140,2012-11-18 20:45:00
1:45 PM,62.6,62.6,100,30.12,10.0,South,3.5,-,N/A,,Overcast,170,2012-11-18 21:45:00
2:50 PM,62.6,62.6,100,30.13,10.0,SSE,3.5,-,N/A,,Overcast,150,2012-11-18 22:50:00
3:45 PM,62.6,62.6,100,30.13,10.0,Calm,Calm,-,N/A,,Mostly Cloudy,0,2012-11-18 23:45:00
4:45 PM,59.0,59.0,100,30.13,10.0,Calm,Calm,-,N/A,,Clear,0,2012-11-19 00:45:00
6:45 PM,53.6,53.6,100,30.15,10.0,Calm,Calm,-,N/A,,Clear,0,2012-11-19 02:45:00
7:45 PM,53.6,53.6,100,30.16,10.0,Calm,Calm,-,N/A,,Clear,0,2012-11-19 03:45:00
8:15 PM,53.6,53.6,100,30.16,10.0,ENE,3.5,-,N/A,,Partly Cloudy,60,2012-11-19 04:15:00
8:35 PM,51.8,51.8,100,30.16,10.0,Calm,Calm,-,N/A,,Clear,0,2012-11-19 04:35:00
8:55 PM,51.8,51.8,100,30.16,10.0,ENE,3.5,-,N/A,,Clear,70,2012-11-19 04:55:00
9:15 PM,51.8,51.8,100,30.16,10.0,East,3.5,-,N/A,,Clear,90,2012-11-19 05:15:00
9:55 PM,51.8,51.8,100,30.17,10.0,Calm,Calm,-,N/A,,Clear,0,2012-11-19 05:55:00
10:15 PM,51.8,51.8,100,30.17,9.0,North,-9999.0,-,N/A,,Clear,0,2012-11-19 06:15:00
10:35 PM,50.0,50.0,100,30.17,10.0,North,-9999.0,-,N/A,,Clear,0,2012-11-19 06:35:00
10:55 PM,50.0,50.0,100,30.17,10.0,Calm,Calm,-,N/A,,Partly Cloudy,0,2012-11-19 06:55:00
11:15 PM,50.0,50.0,100,30.17,10.0,North,-9999.0,-,N/A,,Clear,0,2012-11-19 07:15:00
11:35 PM,50.0,50.0,100,30.18,3.0,North,-9999.0,-,N/A,,Scattered Clouds,0,2012-11-19 07:35:00
11:55 PM,50.0,50.0,100,30.18,9.0,North,-9999.0,-,N/A,,Mostly Cloudy,0,2012-11-19 07:55:00